Details From RJAA - Narita Intl
To RJOO - Osaka Intl
Flight Number -
Tags Generated
Created
Modified
Stats Distance 251 nm / 465 km
Max Altitude 0 ft / 0 m
Waypoints 4
Social Downloads 2
Likes 0
Share VATSIM

Download

Looking for another format? Having issues loading an existing format? Contact us
Advertisement - Login to hide

Notes

Generated

Route

RJAA CHAUS SIE39 RJOO

ID Type Via Altitude Latitude Longitude Leg Dist Tot Dist Heading (true) Name
O RJAA APT - 0 ft / 0 m 35.80271˚ 140.37991˚ - 0 nm - -
CHAUS FIX - 0 ft / 0 m 35.44257˚ 138.04147˚ 116 nm 116 nm 260° / 259° -
SIE39 FIX - 0 ft / 0 m 34.79832˚ 135.79082˚ 117 nm 233 nm 251° / 250° -
O RJOO APT - 0 ft / 0 m 34.79527˚ 135.42869˚ 17 nm 251 nm 270° / 269° -

Altitude Profile

Advertisement - Login to hide

Weather


0- 5 10 15 20 25 30 35+ Temperature / ° C

Clouds and Precipitation
Forecast for 2017-12-16 06:00 UTC. Updated 7 minutes ago

Ground ~20,000 ft ~40,000 ft Winds

RJAA

Details ICAO RJAA (NRT)
Name NARITA INTL
Region Japan
Timezone Asia/Tokyo (UTC+9.0)
Stats Elevation 141 ft / 43 m (AMSL)
Location 35.776552° 140.382770°
Runways 2
Magnetic Variation 7.406° W

METAR

RJAA 160500Z 22004KT 190V270 9999 FEW030 BKN100 14/03 Q1008 NOSIG RMK 1CU030 5AC100 A2979

Decode

TAF

TAF AMD RJAA 160411Z 1604/1706 26005KT 9999 FEW030 BECMG 1604/1606 23010KT BECMG 1612/1615 28006KT

Decode

Departure Runways

ID Width Length Bearing (true) Bearing (mag) Surface Threshold Offset Overrun Length
16L 196 ft / 60 m 7,162 ft / 2,183 m 149.61° 157.02° Asphalt 190 ft / 58 m 0 ft / 0 m
16R 196 ft / 60 m 13,142 ft / 4,006 m 149.61° 157.02° Asphalt 0 ft / 0 m 410 ft / 125 m
34L 196 ft / 60 m 13,142 ft / 4,006 m 329.62° 337.03° Asphalt 0 ft / 0 m 415 ft / 126 m
34R 196 ft / 60 m 7,162 ft / 2,183 m 329.62° 337.03° Asphalt 190 ft / 58 m 0 ft / 0 m

RJOO

Details ICAO RJOO (ITM)
Name OSAKA INTL
Region Japan
Timezone Asia/Tokyo (UTC+9.0)
Stats Elevation 50 ft / 15 m (AMSL)
Location 34.785603° 135.438019°
Runways 2
Magnetic Variation 7.678° W

METAR

RJOO 160500Z 29006KT 230V330 9999 FEW025 SCT060 11/M01 Q1015 RMK 1CU025 4SC060 A2998

Decode

TAF

TAF RJOO 152309Z 1600/1706 25007KT 9999 FEW025 SCT045

Decode

Destination Runways

ID Width Length Bearing (true) Bearing (mag) Surface Threshold Offset Overrun Length
14L 150 ft / 46 m 5,999 ft / 1,829 m 135.13° 142.81° Asphalt 0 ft / 0 m 678 ft / 207 m
14R 200 ft / 61 m 9,846 ft / 3,001 m 135.13° 142.81° Concrete 0 ft / 0 m 240 ft / 73 m
32L 200 ft / 61 m 9,846 ft / 3,001 m 315.15° 322.83° Concrete 0 ft / 0 m 249 ft / 76 m
32R 150 ft / 46 m 5,999 ft / 1,829 m 315.14° 322.82° Asphalt 0 ft / 0 m 571 ft / 174 m

Approach Navaids

Runway Type Ident Frequency Range Bearing (true) Bearing (mag) Slope Elevation
32L Localiser ISK 110.10 MHz 18 nm / 33 km 315.13° 322.81° - 50 ft / 15 m (AMSL)
32L Glidescope ISK 110.10 MHz 10 nm / 19 km 315.14° 322.82° 3.00° 54 ft / 16 m (AMSL)

Popular Alternatives